| time (UTC) | temp F | wind direction | speed knots | gust knots | rain 1hr in | rain 24hr in | rain mn in | humidity % | barometer mb |
| 20260903034527 | 46 | 184 | 0.0 | 0.0 | 0.00 | 0.00 | 0.00 | 95 | 999.8 |
| 20260903033022 | 46 | 184 | 0.0 | 0.0 | 0.00 | 0.00 | 0.00 | 95 | 999.6 |
| 20260903031520 | 46 | 184 | 0.0 | 0.0 | 0.00 | 0.00 | 0.00 | 95 | 999.6 |
| 20260903030018 | 45 | 184 | 0.0 | 0.0 | 0.00 | 0.00 | 0.00 | 95 | 999.7 |
| 20260903024518 | 45 | 184 | 0.0 | 0.0 | 0.00 | 0.00 | 0.00 | 95 | 999.7 |
| 20260903023031 | 46 | 184 | 0.0 | 0.0 | 0.00 | 0.00 | 0.00 | 95 | 999.8 |
| 20260903021518 | 45 | 184 | 0.0 | 0.0 | 0.00 | 0.00 | 0.00 | 95 | 999.8 |
| 20260903020015 | 45 | 184 | 0.0 | 0.0 | 0.00 | 0.00 | 0.00 | 95 | 999.8 |
| 20260903014520 | 46 | 184 | 0.0 | 0.0 | 0.00 | 0.00 | 0.00 | 95 | 999.8 |
| 20260903013014 | 45 | 184 | 0.0 | 0.0 | 0.00 | 0.00 | 0.00 | 95 | 999.8 |
| 20260903011520 | 45 | 225 | 0.0 | 0.0 | 0.00 | 0.00 | 0.00 | 95 | 999.9 |
| 20260903010012 | 45 | 227 | 0.0 | 0.0 | 0.00 | 0.00 | 0.00 | 94 | 1000.0 |
| 20260903004512 | 45 | 229 | 0.0 | 0.0 | 0.00 | 0.00 | 0.00 | 94 | 1000.0 |
| 20260903003009 | 45 | 229 | 0.0 | 0.0 | 0.00 | 0.00 | 0.00 | 94 | 1000.1 |
| 20260903001517 | 44 | 229 | 0.0 | 0.0 | 0.00 | 0.00 | 0.00 | 94 | 1000.1 |
| 20260903000012 | 44 | 229 | 0.0 | 0.0 | 0.00 | 0.00 | 0.00 | 94 | 1000.0 |
| 20260902234505 | 45 | 229 | 0.0 | 0.0 | 0.00 | 0.00 | 0.00 | 94 | 1000.0 |
| 20260902233007 | 45 | 229 | 0.0 | 0.0 | 0.00 | 0.00 | 0.00 | 94 | 1000.1 |
| 20260902231505 | 45 | 229 | 0.0 | 0.0 | 0.00 | 0.00 | 0.00 | 93 | 1000.1 |
| 20260902230118 | 45 | 229 | 0.0 | 0.0 | 0.00 | 0.00 | 0.00 | 93 | 1000.3 |
| 20260902224613 | 45 | 229 | 0.0 | 0.0 | 0.00 | 0.00 | 0.00 | 93 | 1000.3 |
| 20260902223111 | 45 | 229 | 0.0 | 0.0 | 0.00 | 0.00 | 0.00 | 93 | 1000.2 |
| 20260902221603 | 46 | 229 | 0.0 | 0.0 | 0.00 | 0.00 | 0.00 | 93 | 1000.2 |
| 20260902220052 | 46 | 229 | 0.0 | 0.0 | 0.00 | 0.00 | 0.00 | 93 | 1000.1 |
| 20260902214616 | 46 | 229 | 0.0 | 0.0 | 0.00 | 0.00 | 0.00 | 93 | 1000.3 |
| 20260902213052 | 46 | 229 | 0.0 | 0.0 | 0.00 | 0.00 | 0.00 | 92 | 1000.4 |
| 20260902211552 | 46 | 229 | 0.0 | 0.0 | 0.00 | 0.00 | 0.00 | 92 | 1000.4 |
| 20260902210052 | 46 | 229 | 0.0 | 0.0 | 0.00 | 0.00 | 0.00 | 92 | 1000.4 |
| 20260902204548 | 47 | 229 | 0.0 | 0.0 | 0.00 | 0.00 | 0.00 | 91 | 1000.5 |
| 20260902203048 | 47 | 229 | 0.0 | 0.0 | 0.00 | 0.00 | 0.00 | 91 | 1000.6 |
| 20260902201558 | 47 | 229 | 0.0 | 0.0 | 0.00 | 0.00 | 0.00 | 91 | 1000.7 |
| 20260902200049 | 48 | 229 | 0.0 | 0.0 | 0.00 | 0.00 | 0.00 | 90 | 1000.7 |
| 20260902194551 | 49 | 230 | 0.0 | 0.0 | 0.00 | 0.00 | 0.00 | 89 | 1000.6 |
| 20260902193047 | 50 | 230 | 0.0 | 0.0 | 0.00 | 0.00 | 0.00 | 88 | 1000.5 |
| 20260902191546 | 51 | 230 | 0.0 | 0.0 | 0.00 | 0.00 | 0.00 | 88 | 1000.6 |
| 20260902190045 | 51 | 230 | 0.0 | 0.0 | 0.00 | 0.00 | 0.00 | 86 | 1000.5 |
| 20260902184545 | 52 | 230 | 0.0 | 0.0 | 0.00 | 0.00 | 0.00 | 85 | 1000.5 |
| 20260902183045 | 54 | 230 | 0.0 | 0.0 | 0.00 | 0.00 | 0.00 | 83 | 1000.6 |
| 20260902181544 | 55 | 230 | 0.0 | 0.0 | 0.00 | 0.00 | 0.00 | 81 | 1000.6 |
| 20260902180043 | 56 | 230 | 0.0 | 0.0 | 0.00 | 0.00 | 0.00 | 80 | 1000.6 |
| 20260902174549 | 57 | 230 | 0.0 | 0.0 | 0.00 | 0.00 | 0.00 | 79 | 1000.5 |
| 20260902173042 | 58 | 232 | 0.0 | 0.0 | 0.00 | 0.00 | 0.00 | 79 | 1000.7 |
| 20260902171544 | 59 | 233 | 0.0 | 0.0 | 0.00 | 0.00 | 0.00 | 78 | 1000.6 |
| 20260902170042 | 59 | 233 | 0.0 | 0.0 | 0.00 | 0.00 | 0.00 | 78 | 1000.7 |
| 20260902164547 | 59 | 233 | 0.9 | 0.0 | 0.00 | 0.00 | 0.00 | 75 | 1000.5 |
| 20260902163042 | 61 | 232 | 0.9 | 0.0 | 0.00 | 0.00 | 0.00 | 71 | 1000.6 |
| 20260902161540 | 62 | 227 | 0.0 | 0.0 | 0.00 | 0.00 | 0.00 | 66 | 1000.5 |
| 20260902160040 | 61 | 228 | 0.0 | 0.0 | 0.00 | 0.00 | 0.00 | 69 | 1000.6 |
| 20260902154540 | 61 | 228 | 0.0 | 0.0 | 0.00 | 0.00 | 0.00 | 69 | 1000.5 |
| 20260902153040 | 61 | 228 | 0.0 | 0.0 | 0.00 | 0.00 | 0.00 | 70 | 1000.5 |
| 20260902151537 | 61 | 228 | 0.0 | 0.0 | 0.00 | 0.00 | 0.00 | 71 | 1000.7 |
| 20260902150037 | 61 | 227 | 0.9 | 0.0 | 0.00 | 0.00 | 0.00 | 70 | 1000.8 |
| 20260902144536 | 63 | 221 | 1.7 | 0.0 | 0.00 | 0.00 | 0.00 | 68 | 1000.7 |
| 20260902143039 | 63 | 234 | 0.9 | 0.0 | 0.00 | 0.00 | 0.00 | 68 | 1000.7 |
| 20260902141537 | 64 | 195 | 0.9 | 0.0 | 0.00 | 0.00 | 0.00 | 68 | 1000.7 |
| 20260902140030 | 62 | 188 | 0.9 | 0.0 | 0.00 | 0.00 | 0.00 | 70 | 1000.7 |
| 20260902134532 | 62 | 223 | 0.9 | 0.0 | 0.00 | 0.00 | 0.00 | 71 | 1000.9 |
| 20260902133040 | 62 | 320 | 0.0 | 0.0 | 0.00 | 0.00 | 0.00 | 66 | 1000.9 |
| 20260902131524 | 61 | 313 | 0.0 | 0.0 | 0.00 | 0.00 | 0.00 | 66 | 1000.9 |
| 20260902130027 | 61 | 274 | 0.9 | 0.0 | 0.00 | 0.00 | 0.00 | 68 | 1001.0 |
| 20260902124521 | 60 | 302 | 0.9 | 0.0 | 0.00 | 0.00 | 0.00 | 67 | 1001.0 |
| 20260902123020 | 61 | 355 | 1.7 | 0.0 | 0.00 | 0.00 | 0.00 | 67 | 1001.2 |
| 20260902121517 | 61 | 76 | 0.9 | 0.0 | 0.00 | 0.00 | 0.00 | 68 | 1001.1 |
| 20260902120014 | 60 | 117 | 2.6 | 0.0 | 0.00 | 0.00 | 0.00 | 67 | 1001.2 |
| 20260902114512 | 60 | 96 | 2.6 | 0.0 | 0.00 | 0.00 | 0.00 | 67 | 1001.2 |
| 20260902113010 | 60 | 90 | 1.7 | 0.0 | 0.00 | 0.00 | 0.00 | 70 | 1001.4 |
| 20260902111507 | 60 | 94 | 2.6 | 0.0 | 0.00 | 0.00 | 0.00 | 69 | 1001.5 |
| 20260902110013 | 59 | 103 | 3.5 | 0.0 | 0.00 | 0.00 | 0.00 | 70 | 1001.7 |
| 20260902104504 | 59 | 91 | 2.6 | 0.0 | 0.00 | 0.00 | 0.00 | 71 | 1001.6 |
| 20260902103106 | 59 | 126 | 3.5 | 0.0 | 0.00 | 0.00 | 0.00 | 73 | 1001.8 |
| 20260902101557 | 58 | 63 | 2.6 | 0.0 | 0.00 | 0.00 | 0.00 | 73 | 1002.1 |
| 20260902100055 | 58 | 63 | 3.5 | 0.0 | 0.00 | 0.00 | 0.00 | 72 | 1001.9 |
| 20260902094551 | 57 | 80 | 4.3 | 0.0 | 0.00 | 0.00 | 0.00 | 74 | 1002.0 |
| 20260902093048 | 56 | 74 | 3.5 | 0.0 | 0.00 | 0.00 | 0.00 | 76 | 1002.1 |
| 20260902091545 | 56 | 79 | 3.5 | 0.0 | 0.00 | 0.00 | 0.00 | 77 | 1002.2 |
| 20260902090043 | 55 | 66 | 4.3 | 0.0 | 0.00 | 0.00 | 0.00 | 80 | 1002.4 |
| 20260902084542 | 55 | 79 | 3.5 | 0.0 | 0.00 | 0.00 | 0.00 | 79 | 1002.4 |
| 20260902083052 | 56 | 116 | 3.5 | 0.0 | 0.00 | 0.00 | 0.00 | 79 | 1002.5 |
| 20260902081541 | 55 | 76 | 3.5 | 0.0 | 0.00 | 0.00 | 0.00 | 83 | 1002.6 |
| 20260902080036 | 54 | 76 | 3.5 | 0.0 | 0.00 | 0.00 | 0.00 | 85 | 1002.4 |
| 20260902074535 | 54 | 82 | 3.5 | 0.0 | 0.00 | 0.00 | 0.00 | 85 | 1002.4 |
| 20260902073037 | 53 | 82 | 3.5 | 0.0 | 0.00 | 0.00 | 0.00 | 88 | 1002.5 |
| 20260902071528 | 52 | 60 | 1.7 | 0.0 | 0.00 | 0.00 | 0.00 | 91 | 1002.5 |
| 20260902070025 | 51 | 49 | 1.7 | 0.0 | 0.00 | 0.00 | 0.00 | 94 | 1002.7 |
| 20260902064522 | 50 | 69 | 1.7 | 0.0 | 0.00 | 0.00 | 0.00 | 95 | 1002.8 |
| 20260902063018 | 48 | 165 | 0.0 | 0.0 | 0.00 | 0.00 | 0.00 | 96 | 1002.9 |
| 20260902061533 | 48 | 165 | 0.0 | 0.0 | 0.00 | 0.00 | 0.00 | 95 | 1003.0 |
| 20260902060017 | 47 | 166 | 0.0 | 0.0 | 0.00 | 0.00 | 0.00 | 96 | 1003.1 |
| 20260902054521 | 46 | 166 | 0.0 | 0.0 | 0.00 | 0.00 | 0.00 | 96 | 1003.0 |
| 20260902053014 | 45 | 166 | 0.0 | 0.0 | 0.00 | 0.00 | 0.00 | 96 | 1003.2 |
| 20260902051513 | 45 | 166 | 0.0 | 0.0 | 0.00 | 0.00 | 0.00 | 95 | 1003.3 |
| 20260902050015 | 45 | 166 | 0.0 | 0.0 | 0.00 | 0.00 | 0.00 | 95 | 1003.2 |
| 20260902044522 | 45 | 166 | 0.0 | 0.0 | 0.00 | 0.00 | 0.00 | 96 | 1003.3 |
| 20260902043011 | 45 | 166 | 0.0 | 0.0 | 0.00 | 0.00 | 0.00 | 96 | 1003.5 |
| 20260902041510 | 44 | 165 | 0.0 | 0.0 | 0.00 | 0.00 | 0.00 | 96 | 1003.6 |
| 20260902040009 | 43 | 219 | 0.0 | 0.0 | 0.00 | 0.00 | 0.00 | 95 | 1003.5 |